{"data":{"norad_id":53288,"epoch":"2026-09-20T00:45:19.592064Z","epoch_age_seconds":115880,"freshness":"FRESH","line1":"1 53288U 22086AY  26263.03147676  .00000365  00000+0  21357-4 0  9992","line2":"2 53288  53.1608  15.8139 0001024  86.9359 273.1761 15.35395964230748","mean_motion":15.35395964,"eccentricity":0.0001024,"inclination_deg":53.1608,"raan_deg":15.8139,"arg_perigee_deg":86.9359,"mean_anomaly_deg":273.1761,"bstar":2.1357e-5,"rev_number":23074,"period_min":93.786881935558,"perigee_km":459.04442651285,"apogee_km":460.44482466977,"semimajor_km":6837.8816255913,"source":"CELESTRAK","updated_at":"2026-09-20T09:00:40.220995Z"}}